Billy Bishop Toronto City Centre Airport
CYTZ : now visible

Airfield :











YOU CAN JOIN US ON...

 
LOGIN :

Register | Disclaimer

   EN    FR    IT 

 









Legend :    VFR   Marginal VFR   IFR   Intensive IFR   Very Intensive IFR
Visi :
Ceiling :
>= 8 km
>= 3000ft
5 to 8 km
1000 to 3000 ft
1500m to 5 km
500 to 1000 ft
800 to 1500m
200 to 500 ft
< 800m
< 200 ft
Symbols :   Thunderstorms  Fog  Heavy snow  Heavy precipitations  Wind > 20 kt






- Airport Elevation : 251 ft
- IATA code : YTZ


CYTZ - Billy Bishop Toronto City Centre

CURRENT METAR :
  • 092000Z AUTO 33005KT 290V020 9SM BKN046 BKN055 BKN100 21/12 A2976 RMK SLP078 DENSITY ALT 1200FT

EXPIRED METARs :
  • 091900Z AUTO 33009G19KT 300V360 9SM FEW030 BKN060 20/12 A2977 RMK SLP082 DENSITY ALT 1100FT
  • 091800Z AUTO 32007G15KT 9SM FEW028 OVC071 18/12 A2979 RMK SLP089 DENSITY ALT 800FT

TAF TAF CYTZ
Valid from the 09 at 20:00 until the 10 at 20:00 UTC


091940Z 0920/1020 33008KT P6SM BKN060
BECMG 0920/0922 VRB03KT
FM101400 VRB03KT P6SM SCT120 RMK FCST BASED ON AUTO OBS. NXT FCST BY 100200Z
CZYZ FIR / North America



MET'MAP, your aeronautical weather chart ! - Copyright ORBIFLY December 2007 - Disclaimer

ORBIFLY MET'MAP TEAM :

Programming & Development : Alexandra Zaïnal
Original concept : Baudouin d'Aumeries
Technical & hardware support : Manuel Goepfert
Assistance : Marc-Olivier Méhu




SOURCES & CREDITS :

   NOAA       Earth
Advisory